Cloud_Cover
0 0 0 0 5 1 7 100 100 79 14 4 5 2 30 13 5 0 0 0 9 62 7 56 84 4 0 0 0 0 0 0 0 1 94 98 100 100 100 99 100 11 23 45
0 0 0 0 4 0 0 30 100 100 45 7 17 7 5 9 5 2 0 1 70 36 35 44 26 27 5 0 0 0 0 0 0 0 0 0 2 48 6 62 74 100 5 6
0 0 0 0 0 5 4 4 97 100 100 100 79 56 83 6 3 18 4 2 32 92 61 69 28 53 23 0 0 0 0 0 0 0 0 0 0 0 0 1 0 4 25 8
0 0 0 0 0 5 5 13 70 100 100 100 100 100 100 98 86 38 41 30 98 100 100 94 23 5 5 4 0 0 0 0 4 0 0 0 0 0 0 0 0 0 17 100
0 0 0 0 2 5 6 5 6 100 100 100 100 45 100 90 6 12 67 100 100 95 87 63 5 21 0 22 7 0 0 0 5 4 0 0 0 0 0 0 0 0 54 100
0 0 0 0 2 56 5 7 5 10 100 100 99 16 10 56 15 70 47 10 26 8 55 26 3 1 0 9 100 1 0 0 5 31 4 0 0 0 0 0 1 21 100 86
0 0 0 0 0 5 5 5 5 0 0 1 1 0 2 97 100 92 88 84 28 6 4 0 1 2 0 2 18 12 2 0 4 37 36 0 0 0 0 0 0 50 100 89
0 0 0 0 0 3 4 5 5 0 0 0 0 0 0 14 100 100 100 100 9 2 4 0 0 0 1 1 4 26 2 0 0 6 99 1 0 0 0 0 2 100 34 55
0 0 0 0 0 0 0 0 1 0 0 0 0 0 0 0 0 2 35 17 1 0 0 0 0 0 0 3 5 5 5 5 0 4 100 20 0 0 0 0 6 7 75 5
0 0 0 0 0 0 0 3 5 5 0 0 0 0 0 0 0 0 0 0 0 0 0 0 0 0 1 57 5 5 10 5 5 0 56 29 2 0 0 0 22 7 74 5
0 0 0 0 0 0 0 0 0 0 0 0 0 0 0 0 0 0 0 0 0 0 0 0 0 13 38 68 7 67 98 4 0 0 4 57 14 4 0 0 1 22 94 5
0 0 0 0 0 0 0 0 0 0 0 0 0 0 0 0 0 0 5 0 0 0 0 0 3 29 5 71 54 5 1 62 5 5 1 11 76 95 0 0 0 5 90 1
0 0 0 0 0 0 0 0 4 5 2 0 0 0 0 0 0 0 18 0 0 0 0 0 4 3 21 92 41 7 0 0 0 0 0 3 53 70 5 0 0 0 8 3
0 0 0 0 0 0 0 0 0 2 4 0 0 0 0 0 0 0 2 0 0 0 0 0 0 1 21 90 5 1 0 0 0 0 0 0 5 35 47 2 5 5 5 2
0 0 0 0 0 0 0 0 0 0 0 0 0 0 0 0 0 0 0 0 0 0 0 40 88 30 56 33 8 0 3 0 0 0 0 0 0 0 5 6 3 1 28 4
0 0 0 0 0 0 0 0 0 0 0 0 0 0 0 0 0 0 0 0 0 0 5 100 100 85 100 83 10 5 2 1 0 0 0 0 0 0 0 5 46 100 100 58
0 0 0 0 0 0 0 0 0 0 0 0 0 0 0 0 0 0 0 0 0 0 13 100 96 93 68 85 25 2 0 0 0 0 0 0 0 0 0 0 0 9 93 94
0 0 0 0 0 0 0 0 0 0 0 0 0 0 0 0 0 0 0 0 0 3 87 100 98 24 12 3 0 4 0 0 0 0 0 0 0 0 1 1 0 0 2 10
0 0 0 1 0 0 0 0 0 0 0 0 0 0 0 0 0 0 0 0 0 0 0 2 8 0 99 16 76 8 0 0 0 0 0 0 0 0 0 35 37 0 4 4
5 3 0 0 0 0 0 0 0 0 0 0 0 0 0 0 0 0 0 0 0 0 0 0 0 97 96 5 33 0 0 0 0 0 0 0 0 0 0 0 25 100 6 7
0 0 1 0 0 0 0 0 0 0 0 0 0 0 0 0 0 0 0 0 0 0 0 0 0 17 0 0 0 0 0 0 0 0 0 0 0 0 0 0 3 45 24 4
0 0 0 0 0 0 0 0 0 0 0 0 0 0 0 0 3 35 0 0 0 0 0 0 3 2 0 0 0 0 0 3 0 0 0 0 0 0 0 0 0 25 49 4
0 0 0 0 0 0 0 0 0 0 0 0 0 0 0 0 1 5 0 0 0 0 0 0 0 2 0 0 0 0 0 5 0 3 0 0 0 0 0 3 5 4 70 86
0 0 0 0 0 0 0 0 0 0 0 0 0 0 0 0 5 79 8 0 0 0 0 0 5 1 20 73 98 1 3 5 1 5 0 0 0 0 0 0 0 0 3 5
0 0 0 0 0 0 0 0 0 0 0 0 0 0 0 0 54 100 82 0 0 0 0 0 0 0 5 100 100 100 0 4 0 0 1 0 0 1 0 0 0 0 0 1
2 1 0 1 0 0 0 0 0 10 3 5 1 0 5 8 100 100 99 2 0 0 0 0 0 3 4 8 100 100 47 0 0 0 2 5 0 0 0 51 19 90 87 89